Regional Weather Roundup
Issued by NWS

Home | Current Version | Previous Version | Graphics & Text | Print | Product List | Glossary On
Versions: 1 2 3 4 5 6 7 8 9 10 11 12 13 14 15 16 17 18 19 20 21 22 23 24 25 26 27 28
000
ASUS45 KTFX 051910
RWRMT
MONTANA REGIONAL WEATHER ROUNDUP
NATIONAL WEATHER SERVICE GREAT FALLS MT
100 PM MDT THU MAY 05 2016

NOTE: "FAIR" INDICATES FEW OR NO CLOUDS BELOW 12000 FEET WITH NO
SIGNIFICANT WEATHER AND/OR OBSTRUCTIONS TO VISIBILITY.

MTZ001>007-043-052000-
WEST OF THE DIVIDE

CITY           SKY/WX    TMP DP  RH WIND       PRES   REMARKS
KALISPELL      PTSUNNY   72  44  36 S3        29.89F
MISSOULA       PTSUNNY   71  42  35 W3        29.90F
BUTTE          CLOUDY    69  30  23 MISG      29.98F
MULLAN PASS    PTSUNNY   57  41  55 NW5       30.01S
ANACONDA         N/A     70  34  26 CALM      29.96F
DEER LODGE       N/A     70  37  30 CALM      29.97F
EUREKA           N/A     66  46  48 NW6       29.93F
HAMILTON         N/A     70  39  32 NW3       29.90F
LIBBY            N/A     70  46  43 S6        29.91F
PLAINS           N/A     74  50  42 CALM      29.89F
$$

MTZ008-052>055-052000-
SOUTHWEST MONTANA

CITY           SKY/WX    TMP DP  RH WIND       PRES   REMARKS
BOZEMAN        CLOUDY    76  35  22 N7        29.93F
DILLON         CLOUDY    69  34  27 VRB3      29.96F
ENNIS          SUNNY     73  32  21 S17       30.02F
THREE FORKS      N/A     76  -9   3 N5        29.94F
TWIN BRIDGES     N/A     71  31  23 S3        29.96F
$$

MTZ009-010-012-014-046-048-049-054-052000-
EAST SLOPES AND CENTRAL MONTANA

CITY           SKY/WX    TMP DP  RH WIND       PRES   REMARKS
CUT BANK       PTSUNNY   72  45  37 N16       29.92F
GREAT FALLS    SUNNY     75  39  27 SW7       29.89F
MALMSTROM AFB  MOSUNNY   73  39  29 W5        29.89F
HELENA         CLOUDY    77  35  21 NE8       29.90F
CHOTEAU          N/A     75  36  23 NE5       29.91F
CONRAD           N/A     77  46  33 NW3       29.94S
$$

MTZ011-013-016-021-045-047-050-051-052000-
NORTH CENTRAL MONTANA

CITY           SKY/WX    TMP DP  RH WIND       PRES   REMARKS
HAVRE          SUNNY     79  42  26 CALM      29.85S
LEWISTOWN      CLOUDY    78  34  20 W7        29.91F
N BAR RANCH      N/A     79  28  15 NW13G18   29.93F
$$

MTZ017>020-022>027-061-062-052000-
NORTHEAST MONTANA

CITY           SKY/WX    TMP DP  RH WIND       PRES   REMARKS
GLASGOW        CLOUDY    80  48  32 W8        29.80F
JORDAN           N/A     83  46  27 W8        29.83F
SIDNEY         SUNNY     86  43  22 S13       29.81F
WOLF POINT     CLOUDY    83  49  30 SW10      29.79S
POPLAR           N/A     88  43  20 S12G21    29.79S
SCOBEY           N/A     87  45  23 SW17      29.79F
$$

MTZ028>42-056>058-052000-
SOUTHCENTRAL AND SOUTHEAST MONTANA

CITY           SKY/WX    TMP DP  RH WIND       PRES   REMARKS
BAKER          SUNNY     84  33  16 SW3       29.88F
BILLINGS       CLOUDY    80  38  22 W9        29.92F
LIVINGSTON     SUNNY     79  35  20 SW10      29.93F
MILES CITY     PTSUNNY   82  45  27 VRB5      29.84F
EKALAKA          N/A     82  33  17 S3        29.91F
FORSYTH          N/A     81  43  26 W6        29.85F
LAUREL           N/A     79  36  21 SW9       29.91F
ROUNDUP          N/A     78  35  21 S10       29.82F
$$

REGIONAL REPORTS...DAKOTAS

CITY           SKY/WX    TMP DP  RH WIND       PRES   REMARKS
WILLISTON      SUNNY     88  40  18 SW12      29.80F
MINOT          SUNNY     93  38  14 S16G23    29.78F
DICKINSON      SUNNY     83  35  18 VRB3      29.85F
BEACH            N/A     84  32  15 SW8G18    29.89S
CROSBY           N/A     90  39  17 SW13G18   29.79F
TIOGA            N/A     86  36  16 SW20      29.86F
WATFORD CITY     N/A     88  36  15 W6        29.82S
BISMARCK       SUNNY     85  47  26 S9        29.85F
GRAND FORKS    MOSUNNY   92  39  15 W17G33    29.77F
FARGO          MOSUNNY   90  39  16 SW15G25   29.82F
BUFFALO SD       N/A     84  43  23 SE9       29.84F
RAPID CITY     SUNNY     81  49  32 S14       29.92F
$$

REGIONAL REPORTS...WYOMING/IDAHO/WASHINGTON

CITY           SKY/WX    TMP DP  RH WIND       PRES   REMARKS
GILLETTE       SUNNY     79  41  25 VRB5      29.96S
SHERIDAN       CLOUDY    81  40  23 CALM      29.93F
BUFFALO WY     CLOUDY    76  35  22 VRB3      30.00F
CODY           CLOUDY    75  34  22 CALM      30.00F
YELLOWSTONE LA   N/A     57  27  31 E5        30.18F
IDAHO FALLS    CLOUDY    74  39  28 VRB5      29.96F
SALMON         CLOUDY    66  37  34 CALM      29.88F
BOISE          CLOUDY    69  47  45 W5        29.83F
SPOKANE        PTSUNNY   63  51  65 N6        29.94S
$$

REGIONAL REPORTS...ALBERTA

CITY           SKY/WX    TMP DP  RH WIND       PRES   REMARKS
EDMONTON       MOSUNNY   55  30  38 W7        30.02F
CALGARY        LGT RAIN  48  39  71 N16G25    30.07R
LETHBRIDGE     PTSUNNY   66  36  32 N13G25    29.96R
MEDICINE HAT   PTSUNNY   72  43  35 NW15      29.88R
WATERTON GATE    N/A     61  37  41 NE8         N/A
CARDSTON         N/A     61  37  41 N9          N/A
MILK RIVER       N/A     68  41  37 N14G20      N/A
$$

REGIONAL REPORTS...SASKATCHEWAN

CITY           SKY/WX    TMP DP  RH WIND       PRES   REMARKS
SWIFT CURRENT  SUNNY     81  39  22 W21G30    29.80R
REGINA         PTSUNNY   90  37  15 SW16G23   29.70F
SASKATOON      MOSUNNY   82  41  23 NW5       29.69F
CYPRESS HILLS    N/A     70  41  35 NW8         N/A
VAL MARIE        N/A     82  36  18 NW8         N/A
ROCKGLEN         N/A     81  43  26 W8          N/A
ASSINIBOIA       N/A     48  43  81 N6          N/A
$$




USA.gov is the U.S. government's official web portal to all federal, state and local government web resources and services.